• In Germany
  • List of Countries
  • For 7 days
  • Water Temperature
  • Satellite Maps
  • Weather Map
  • Weather Widgets
  • user-avatar
    Login

    Hourly Weather Razgrad

    Today, 21 August, Monday

    Time Temperature Precipitation Wind Pressure Humidity
    00:00 +22°C° 0 mm 1 mps 739 mmHg 71%
    01:00 +22°C° 0 mm 1 mps 738 mmHg 74%
    02:00 +19°C° 0 mm 0 mps 738 mmHg 76%
    03:00 +21°C° 0 mm 1 mps 738 mmHg 77%
    04:00 +21°C° 0 mm 1 mps 738 mmHg 78%
    05:00 +19°C° 0 mm 2 mps 738 mmHg 79%
    06:00 +20°C° 0.1 mm 2 mps 738 mmHg 74%
    07:00 +21°C° 0.1 mm 3 mps 738 mmHg 70%
    08:00 +22°C° 0.1 mm 3 mps 738 mmHg 65%
    09:00 +25°C° 0.1 mm 3 mps 738 mmHg 59%
    10:00 +27°C° 0.1 mm 3 mps 738 mmHg 52%
    11:00 +29°C° 0.1 mm 4 mps 738 mmHg 46%
    12:00 +30°C° 0 mm 4 mps 738 mmHg 42%
    13:00 +32°C° 0 mm 4 mps 738 mmHg 38%
    14:00 +33°C° 0 mm 4 mps 737 mmHg 34%
    15:00 +30°C° 0.2 mm 4 mps 737 mmHg 38%
    16:00 +29°C° 0.2 mm 5 mps 737 mmHg 42%
    17:00 +28°C° 0.2 mm 5 mps 737 mmHg 46%
    18:00 +26°C° 0.2 mm 5 mps 737 mmHg 55%
    19:00 +23°C° 0.2 mm 5 mps 737 mmHg 64%
    20:00 +21°C° 0.2 mm 5 mps 737 mmHg 72%
    21:00 +20°C° 0.2 mm 5 mps 738 mmHg 74%
    22:00 +20°C° 0.2 mm 4 mps 738 mmHg 75%
    23:00 +19°C° 0.2 mm 3 mps 738 mmHg 76%

    Tomorrow, 22 August, Tuesday

    Time Temperature Precipitation Wind Pressure Humidity
    00:00 +19°C° 0.2 mm 3 mps 738 mmHg 76%
    01:00 +18°C° 0.2 mm 3 mps 738 mmHg 76%
    02:00 +18°C° 0.2 mm 3 mps 739 mmHg 77%
    03:00 +17°C° 1.3 mm 3 mps 739 mmHg 79%
    04:00 +17°C° 1.3 mm 3 mps 739 mmHg 81%
    05:00 +16°C° 1.3 mm 2 mps 739 mmHg 83%
    06:00 +16°C° 1.2 mm 3 mps 739 mmHg 81%
    07:00 +17°C° 1.2 mm 3 mps 739 mmHg 79%
    08:00 +17°C° 1.2 mm 3 mps 740 mmHg 77%
    09:00 +17°C° 0.2 mm 3 mps 740 mmHg 75%
    10:00 +18°C° 0.2 mm 3 mps 740 mmHg 73%
    11:00 +19°C° 0.2 mm 3 mps 740 mmHg 70%
    12:00 +19°C° 0.2 mm 3 mps 740 mmHg 68%
    13:00 +20°C° 0.2 mm 3 mps 740 mmHg 65%
    14:00 +21°C° 0.2 mm 3 mps 740 mmHg 62%
    15:00 +21°C° 0 mm 3 mps 740 mmHg 58%
    16:00 +23°C° 0 mm 2 mps 739 mmHg 54%
    17:00 +24°C° 0 mm 2 mps 739 mmHg 50%
    18:00 +21°C° 0.2 mm 2 mps 740 mmHg 57%
    19:00 +19°C° 0.2 mm 2 mps 740 mmHg 63%
    20:00 +17°C° 0.2 mm 2 mps 740 mmHg 69%
    21:00 +17°C° 0 mm 2 mps 740 mmHg 68%
    22:00 +17°C° 0 mm 2 mps 740 mmHg 67%
    23:00 +17°C° 0 mm 2 mps 741 mmHg 66%

    Day after tomorrow, 23 August, Wednesday

    Time Temperature Precipitation Wind Pressure Humidity
    00:00 +16°C° 0 mm 2 mps 741 mmHg 65%
    01:00 +16°C° 0 mm 2 mps 741 mmHg 63%
    02:00 +16°C° 0 mm 2 mps 741 mmHg 62%
    03:00 +15°C° 0 mm 2 mps 741 mmHg 63%
    04:00 +15°C° 0 mm 2 mps 741 mmHg 64%
    05:00 +14°C° 0 mm 2 mps 741 mmHg 65%
    06:00 +16°C° 0 mm 2 mps 741 mmHg 61%
    07:00 +18°C° 0 mm 3 mps 741 mmHg 56%
    08:00 +19°C° 0 mm 3 mps 742 mmHg 51%
    09:00 +21°C° 0 mm 4 mps 742 mmHg 46%
    10:00 +23°C° 0 mm 4 mps 742 mmHg 41%
    11:00 +26°C° 0 mm 5 mps 742 mmHg 35%
    12:00 +27°C° 0 mm 5 mps 742 mmHg 33%
    13:00 +28°C° 0 mm 5 mps 741 mmHg 30%
    14:00 +28°C° 0 mm 5 mps 741 mmHg 27%
    15:00 +28°C° 0 mm 5 mps 741 mmHg 28%
    16:00 +28°C° 0 mm 4 mps 741 mmHg 28%
    17:00 +28°C° 0 mm 4 mps 741 mmHg 29%
    18:00 +26°C° 0 mm 3 mps 741 mmHg 32%
    19:00 +24°C° 0 mm 2 mps 742 mmHg 36%
    20:00 +21°C° 0 mm 2 mps 742 mmHg 39%
    21:00 +20°C° 0 mm 2 mps 742 mmHg 41%
    22:00 +19°C° 0 mm 2 mps 742 mmHg 43%
    23:00 +18°C° 0 mm 2 mps 743 mmHg 45%

    24 August, Thursday

    Time Temperature Precipitation Wind Pressure Humidity
    00:00 +18°C° 0 mm 2 mps 743 mmHg 47%
    01:00 +17°C° 0 mm 2 mps 743 mmHg 49%
    02:00 +17°C° 0 mm 2 mps 743 mmHg 51%
    03:00 +16°C° 0 mm 2 mps 743 mmHg 54%
    04:00 +15°C° 0 mm 1 mps 743 mmHg 56%
    05:00 +15°C° 0 mm 1 mps 743 mmHg 58%
    06:00 +16°C° 0 mm 1 mps 743 mmHg 54%
    07:00 +19°C° 0 mm 1 mps 744 mmHg 50%
    08:00 +20°C° 0 mm 2 mps 744 mmHg 46%
    09:00 +23°C° 0 mm 2 mps 744 mmHg 42%
    10:00 +24°C° 0 mm 2 mps 744 mmHg 38%
    11:00 +26°C° 0 mm 2 mps 744 mmHg 35%
    12:00 +27°C° 0 mm 2 mps 744 mmHg 32%
    13:00 +28°C° 0 mm 2 mps 744 mmHg 29%
    14:00 +29°C° 0 mm 2 mps 744 mmHg 26%
    15:00 +29°C° 0 mm 2 mps 744 mmHg 26%
    16:00 +29°C° 0 mm 2 mps 744 mmHg 25%
    17:00 +29°C° 0 mm 2 mps 743 mmHg 25%
    18:00 +26°C° 0 mm 2 mps 744 mmHg 30%
    19:00 +24°C° 0 mm 2 mps 744 mmHg 34%
    20:00 +21°C° 0 mm 1 mps 744 mmHg 39%
    21:00 +20°C° 0 mm 1 mps 744 mmHg 43%
    22:00 +20°C° 0 mm 1 mps 744 mmHg 47%
    23:00 +19°C° 0 mm 1 mps 745 mmHg 51%

    25 August, Friday

    Time Temperature Precipitation Wind Pressure Humidity
    00:00 +19°C° 0 mm 1 mps 745 mmHg 53%
    01:00 +18°C° 0 mm 1 mps 745 mmHg 55%
    02:00 +18°C° 0 mm 1 mps 745 mmHg 58%
    03:00 +18°C° 0 mm 1 mps 745 mmHg 59%
    04:00 +18°C° 0 mm 1 mps 745 mmHg 61%
    05:00 +16°C° 0 mm 1 mps 745 mmHg 62%
    06:00 +19°C° 0 mm 1 mps 745 mmHg 57%
    07:00 +22°C° 0 mm 1 mps 746 mmHg 51%
    08:00 +22°C° 0 mm 0 mps 746 mmHg 46%
    09:00 +25°C° 0 mm 1 mps 746 mmHg 40%
    10:00 +27°C° 0 mm 1 mps 746 mmHg 33%
    11:00 +29°C° 0 mm 2 mps 746 mmHg 26%
    12:00 +30°C° 0 mm 2 mps 746 mmHg 25%
    13:00 +31°C° 0 mm 2 mps 746 mmHg 23%
    14:00 +31°C° 0 mm 2 mps 746 mmHg 21%
    15:00 +31°C° 0 mm 3 mps 745 mmHg 22%
    16:00 +31°C° 0 mm 3 mps 745 mmHg 22%
    17:00 +31°C° 0 mm 3 mps 745 mmHg 23%
    18:00 +28°C° 0 mm 3 mps 745 mmHg 28%
    19:00 +25°C° 0 mm 2 mps 745 mmHg 34%
    20:00 +23°C° 0 mm 2 mps 746 mmHg 40%
    21:00 +21°C° 0 mm 2 mps 746 mmHg 45%
    22:00 +20°C° 0 mm 2 mps 746 mmHg 50%
    23:00 +19°C° 0 mm 2 mps 746 mmHg 55%

    26 August, Saturday

    Time Temperature Precipitation Wind Pressure Humidity
    00:00 +18°C° 0 mm 2 mps 746 mmHg 58%
    01:00 +19°C° 0 mm 1 mps 746 mmHg 61%
    02:00 +19°C° 0 mm 1 mps 746 mmHg 64%
    03:00 +18°C° 0 mm 1 mps 746 mmHg 65%
    04:00 +18°C° 0 mm 1 mps 746 mmHg 67%
    05:00 +18°C° 0 mm 1 mps 746 mmHg 68%
    06:00 +20°C° 0 mm 1 mps 746 mmHg 61%
    07:00 +22°C° 0 mm 1 mps 746 mmHg 54%
    08:00 +24°C° 0 mm 1 mps 747 mmHg 47%
    09:00 +26°C° 0 mm 2 mps 747 mmHg 40%
    10:00 +28°C° 0 mm 2 mps 747 mmHg 34%
    11:00 +30°C° 0 mm 3 mps 747 mmHg 27%
    12:00 +30°C° 0 mm 3 mps 746 mmHg 26%
    13:00 +31°C° 0 mm 3 mps 746 mmHg 24%
    14:00 +33°C° 0 mm 3 mps 745 mmHg 23%
    15:00 +33°C° 0 mm 3 mps 745 mmHg 24%
    16:00 +32°C° 0 mm 4 mps 745 mmHg 25%
    17:00 +32°C° 0 mm 4 mps 745 mmHg 26%
    18:00 +28°C° 0 mm 3 mps 745 mmHg 34%
    19:00 +26°C° 0 mm 3 mps 745 mmHg 41%
    20:00 +22°C° 0 mm 3 mps 745 mmHg 49%
    21:00 +21°C° 0 mm 2 mps 745 mmHg 54%
    22:00 +20°C° 0 mm 2 mps 745 mmHg 59%
    23:00 +19°C° 0 mm 2 mps 745 mmHg 65%
    Show more